Location: Sternwarte ZA, Rosenfeld-Brittheim
(48.2889°N, 8.6789°E)
Time: 10:30:09
(UTC+02:00)

Envisat - Visible Passes

Search period start: 18 September 2021 00:00
Search period end: 28 September 2021 00:00
Orbit: 764 x 766 km, 98.2° (Epoch: 17 September)

Date Brightness Start Highest point End Pass type
(mag) Time Alt. Az. Time Alt. Az. Time Alt. Az.
18 Sep 5.9 05:20:37 10° NE 05:23:39 16° E 05:26:40 10° SE visible
19 Sep 4.0 06:21:24 10° NNE 06:26:23 52° E 06:31:19 10° S visible
20 Sep 5.3 05:45:04 10° NE 05:49:17 26° E 05:53:28 10° SSE visible
21 Sep 6.1 05:09:52 10° ENE 05:11:59 12° E 05:14:04 10° ESE visible
22 Sep 4.4 06:09:58 10° NNE 06:14:49 42° E 06:19:37 10° SSE visible
23 Sep 5.7 05:33:51 10° NE 05:37:40 21° E 05:41:26 10° SE visible
24 Sep 3.4 06:35:09 10° NNE 06:40:15 70° ESE 06:45:18 10° S visible
25 Sep 4.8 05:58:37 10° NNE 06:03:14 34° E 06:07:49 10° SSE visible
26 Sep 5.9 05:22:46 10° NE 05:26:01 17° E 05:29:14 10° SE visible
27 Sep 3.8 06:23:41 10° NNE 06:28:42 56° E 06:33:41 10° S visible
